| time (UTC) | temp F | wind direction | speed MPH | gust MPH | rain 1hr in | rain 24hr in | rain mn in | humidity % | barometer mb |
| 20260906153110 | 87 | 119 | 0.0 | 6.0 | 0.00 | 0.00 | 0.00 | 72 | 1014.5 |
| 20260906151553 | 86 | 107 | 0.0 | 5.0 | 0.00 | 0.00 | 0.00 | 73 | 1014.6 |
| 20260906150049 | 84 | 340 | 0.0 | 7.0 | 0.00 | 0.00 | 0.00 | 77 | 1014.5 |
| 20260906144549 | 84 | 100 | 0.0 | 5.0 | 0.00 | 0.00 | 0.00 | 76 | 1014.6 |
| 20260906143047 | 83 | 350 | 0.0 | 3.0 | 0.00 | 0.00 | 0.00 | 77 | 1014.6 |
| 20260906141559 | 83 | 81 | 0.0 | 4.0 | 0.00 | 0.00 | 0.00 | 78 | 1014.5 |
| 20260906140043 | 81 | 106 | 2.0 | 7.0 | 0.00 | 0.00 | 0.00 | 79 | 1014.3 |
| 20260906134547 | 81 | 103 | 0.0 | 5.0 | 0.00 | 0.00 | 0.00 | 81 | 1014.2 |
| 20260906133046 | 80 | 123 | 1.0 | 9.0 | 0.00 | 0.00 | 0.00 | 83 | 1014.3 |
| 20260906131557 | 79 | 44 | 0.0 | 4.0 | 0.00 | 0.00 | 0.00 | 85 | 1014.2 |
| 20260906130052 | 78 | 89 | 0.0 | 5.0 | 0.00 | 0.00 | 0.00 | 87 | 1014.1 |
| 20260906124538 | 77 | 335 | 0.0 | 7.0 | 0.00 | 0.00 | 0.00 | 89 | 1014.1 |
| 20260906123039 | 0 | 0.0 | 0.0 | 0.00 | 0.00 | 0.00 | 1013.9 | ||
| 20260906121536 | 0 | 0.0 | 0.0 | 0.00 | 0.00 | 0.00 | 1013.7 | ||
| 20260906120027 | 0 | 0.0 | 0.0 | 0.00 | 0.00 | 0.00 | 1013.7 | ||
| 20260906114529 | 0 | 0.0 | 0.0 | 0.00 | 0.00 | 0.00 | 1013.6 | ||
| 20260906113019 | 0 | 0.0 | 0.0 | 0.00 | 0.00 | 0.00 | 1013.5 | ||
| 20260906111513 | 0 | 0.0 | 0.0 | 0.00 | 0.00 | 0.00 | 1013.3 | ||
| 20260906110011 | 0 | 0.0 | 0.0 | 0.00 | 0.00 | 0.00 | 1013.2 | ||
| 20260906104506 | 0 | 0.0 | 0.0 | 0.00 | 0.00 | 0.00 | 1013.1 | ||
| 20260906103002 | 0 | 0.0 | 0.0 | 0.00 | 0.00 | 0.00 | 1013.1 | ||
| 20260906101603 | 0 | 0.0 | 0.0 | 0.00 | 0.00 | 0.00 | 1013.0 | ||
| 20260906100052 | 0 | 0.0 | 0.0 | 0.00 | 0.00 | 0.00 | 1012.7 | ||
| 20260906094558 | 0 | 0.0 | 0.0 | 0.00 | 0.00 | 0.00 | 1012.6 | ||
| 20260906093049 | 0 | 0.0 | 0.0 | 0.00 | 0.00 | 0.00 | 1012.4 | ||
| 20260906091541 | 79 | 123 | 0.0 | 0.0 | 0.00 | 0.00 | 0.00 | 81 | 1012.3 |
| 20260906090049 | 80 | 110 | 0.0 | 3.0 | 0.00 | 0.00 | 0.00 | 80 | 1012.1 |
| 20260906084536 | 80 | 108 | 0.0 | 3.0 | 0.00 | 0.00 | 0.00 | 78 | 1011.9 |
| 20260906083039 | 81 | 91 | 0.0 | 2.0 | 0.00 | 0.00 | 0.00 | 78 | 1011.8 |
| 20260906081532 | 81 | 118 | 1.0 | 3.0 | 0.00 | 0.00 | 0.00 | 78 | 1011.8 |
| 20260906080037 | 80 | 123 | 0.0 | 0.0 | 0.00 | 0.00 | 0.00 | 77 | 1011.9 |
| 20260906074530 | 81 | 119 | 0.0 | 0.0 | 0.00 | 0.00 | 0.00 | 76 | 1011.9 |
| 20260906073025 | 81 | 91 | 0.0 | 0.0 | 0.00 | 0.00 | 0.00 | 75 | 1011.9 |
| 20260906071527 | 81 | 150 | 0.0 | 0.0 | 0.00 | 0.00 | 0.00 | 74 | 1012.0 |
| 20260906070022 | 81 | 89 | 0.0 | 0.0 | 0.00 | 0.00 | 0.00 | 73 | 1012.1 |
| 20260906064521 | 81 | 101 | 0.0 | 2.0 | 0.00 | 0.00 | 0.00 | 72 | 1012.1 |
| 20260906063020 | 81 | 126 | 0.0 | 0.0 | 0.00 | 0.00 | 0.00 | 71 | 1012.3 |
| 20260906061518 | 81 | 105 | 0.0 | 0.0 | 0.00 | 0.00 | 0.00 | 70 | 1012.4 |
| 20260906060021 | 82 | 110 | 0.0 | 0.0 | 0.00 | 0.00 | 0.00 | 69 | 1012.3 |
| 20260906054512 | 83 | 100 | 0.0 | 0.0 | 0.00 | 0.00 | 0.00 | 66 | 1012.3 |
| 20260906053009 | 83 | 96 | 0.0 | 1.0 | 0.00 | 0.00 | 0.00 | 66 | 1012.2 |
| 20260906051514 | 84 | 107 | 0.0 | 0.0 | 0.00 | 0.00 | 0.00 | 65 | 1012.1 |
| 20260906050006 | 84 | 117 | 0.0 | 1.0 | 0.00 | 0.00 | 0.00 | 64 | 1012.1 |
| 20260906044506 | 84 | 63 | 0.0 | 0.0 | 0.00 | 0.00 | 0.00 | 64 | 1012.1 |
| 20260906043008 | 84 | 113 | 0.0 | 1.0 | 0.00 | 0.00 | 0.00 | 63 | 1012.2 |
| 20260906041502 | 84 | 116 | 0.0 | 0.0 | 0.00 | 0.00 | 0.00 | 63 | 1012.2 |
| 20260906040001 | 84 | 103 | 0.0 | 0.0 | 0.00 | 0.00 | 0.00 | 63 | 1012.0 |
| 20260906034606 | 84 | 101 | 0.0 | 0.0 | 0.00 | 0.00 | 0.00 | 63 | 1011.7 |
| 20260906033100 | 84 | 49 | 0.0 | 0.0 | 0.00 | 0.00 | 0.00 | 63 | 1011.8 |
| 20260906031558 | 84 | 49 | 0.0 | 0.0 | 0.00 | 0.00 | 0.00 | 62 | 1011.8 |
| 20260906030056 | 85 | 49 | 0.0 | 0.0 | 0.00 | 0.00 | 0.00 | 61 | 1011.5 |
| 20260906024557 | 85 | 49 | 0.0 | 0.0 | 0.00 | 0.00 | 0.00 | 62 | 1011.4 |
| 20260906023054 | 85 | 48 | 0.0 | 0.0 | 0.00 | 0.00 | 0.00 | 61 | 1011.3 |
| 20260906021558 | 85 | 47 | 0.0 | 0.0 | 0.00 | 0.00 | 0.00 | 60 | 1011.0 |
| 20260906020049 | 86 | 47 | 0.0 | 0.0 | 0.00 | 0.00 | 0.00 | 59 | 1010.7 |
| 20260906014551 | 86 | 47 | 0.0 | 0.0 | 0.00 | 0.00 | 0.00 | 59 | 1010.5 |
| 20260906013045 | 87 | 47 | 0.0 | 0.0 | 0.00 | 0.00 | 0.00 | 58 | 1010.4 |
| 20260906011542 | 87 | 47 | 0.0 | 0.0 | 0.00 | 0.00 | 0.00 | 57 | 1010.3 |
| 20260906010048 | 88 | 46 | 0.0 | 0.0 | 0.00 | 0.00 | 0.00 | 55 | 1010.3 |
| 20260906004534 | 90 | 103 | 0.0 | 0.0 | 0.00 | 0.00 | 0.00 | 52 | 1010.1 |
| 20260906003031 | 91 | 65 | 0.0 | 0.0 | 0.00 | 0.00 | 0.00 | 50 | 1010.1 |
| 20260906001542 | 92 | 22 | 0.0 | 6.0 | 0.00 | 0.00 | 0.00 | 48 | 1010.3 |
| 20260906000022 | 94 | 30 | 0.0 | 1.0 | 0.00 | 0.00 | 0.00 | 48 | 1010.4 |
| 20260905234518 | 95 | 23 | 0.0 | 1.0 | 0.00 | 0.00 | 0.00 | 47 | 1010.4 |
| 20260905233020 | 95 | 6 | 0.0 | 3.0 | 0.00 | 0.00 | 0.00 | 46 | 1010.4 |
| 20260905231517 | 95 | 30 | 0.0 | 2.0 | 0.00 | 0.00 | 0.00 | 45 | 1010.6 |
| 20260905230011 | 96 | 18 | 0.0 | 4.0 | 0.00 | 0.00 | 0.00 | 43 | 1010.8 |
| 20260905224508 | 97 | 23 | 2.0 | 5.0 | 0.00 | 0.00 | 0.00 | 42 | 1011.2 |
| 20260905223006 | 97 | 352 | 2.0 | 9.0 | 0.00 | 0.00 | 0.00 | 41 | 1011.6 |
| 20260905221603 | 98 | 24 | 2.0 | 5.0 | 0.00 | 0.00 | 0.00 | 41 | 1012.2 |
| 20260905220058 | 0 | 12 | 1.0 | 5.0 | 0.00 | 0.00 | 0.00 | 1012.4 | |
| 20260905214552 | 0 | 304 | 2.0 | 9.0 | 0.00 | 0.00 | 0.00 | 1012.3 | |
| 20260905213050 | 0 | 16 | 0.0 | 1.0 | 0.00 | 0.00 | 0.00 | 1012.2 | |
| 20260905211546 | 0 | 304 | 0.0 | 4.0 | 0.00 | 0.00 | 0.00 | 1012.3 | |
| 20260905210050 | 0 | 303 | 2.0 | 9.0 | 0.00 | 0.00 | 0.00 | 1012.5 | |
| 20260905204535 | 0 | 344 | 0.0 | 6.0 | 0.00 | 0.00 | 0.00 | 1012.7 | |
| 20260905203030 | 0 | 31 | 1.0 | 7.0 | 0.00 | 0.00 | 0.00 | 1012.9 | |
| 20260905201529 | 0 | 351 | 0.0 | 5.0 | 0.00 | 0.00 | 0.00 | 1013.2 | |
| 20260905200030 | 0 | 347 | 3.0 | 6.0 | 0.00 | 0.00 | 0.00 | 1013.4 | |
| 20260905194516 | 0 | 280 | 2.0 | 10.0 | 0.00 | 0.00 | 0.00 | 1013.4 | |
| 20260905193017 | 0 | 348 | 3.0 | 8.0 | 0.00 | 0.00 | 0.00 | 1013.6 | |
| 20260905191507 | 0 | 16 | 2.0 | 6.0 | 0.00 | 0.00 | 0.00 | 1013.6 | |
| 20260905190005 | 0 | 307 | 1.0 | 6.0 | 0.00 | 0.00 | 0.00 | 1013.8 | |
| 20260905184607 | 0 | 9 | 0.0 | 9.0 | 0.00 | 0.00 | 0.00 | 1014.0 | |
| 20260905183053 | 0 | 23 | 2.0 | 7.0 | 0.00 | 0.00 | 0.00 | 1014.2 | |
| 20260905181550 | 0 | 22 | 0.0 | 5.0 | 0.00 | 0.00 | 0.00 | 1014.4 | |
| 20260905180045 | 0 | 302 | 4.0 | 13.0 | 0.00 | 0.00 | 0.00 | 1014.5 | |
| 20260905174540 | 0 | 282 | 3.0 | 8.0 | 0.00 | 0.00 | 0.00 | 1014.7 | |
| 20260905173043 | 0 | 262 | 0.0 | 2.0 | 0.00 | 0.00 | 0.00 | 1014.8 | |
| 20260905171531 | 0 | 360 | 0.0 | 3.0 | 0.00 | 0.00 | 0.00 | 1014.9 | |
| 20260905170026 | 0 | 335 | 2.0 | 6.0 | 0.00 | 0.00 | 0.00 | 1015.0 | |
| 20260905164523 | 0 | 359 | 0.0 | 3.0 | 0.00 | 0.00 | 0.00 | 1015.0 | |
| 20260905163018 | 0 | 318 | 0.0 | 4.0 | 0.00 | 0.00 | 0.00 | 1015.2 | |
| 20260905161514 | 0 | 236 | 0.0 | 3.0 | 0.00 | 0.00 | 0.00 | 1015.3 | |
| 20260905160009 | 0 | 58 | 1.0 | 6.0 | 0.00 | 0.00 | 0.00 | 1015.3 | |
| 20260905154504 | 0 | 359 | 1.0 | 5.0 | 0.00 | 0.00 | 0.00 | 1015.4 |